Location: Newark
(48.8604°N, 2.3376°E)
Time: 20:24:23
(UTC+00:00)

X-37B - Pass Details

Date: 26 September 2021
Orbit: 385 x 389 km, 45.0° (Epoch: 17 October)

Event Time Altitude Azimuth Distance (km) Brightness Sun altitude
Exits shadow 04:17:32 26° 213° (SSW) 805 1.8 -14.7°
Maximum altitude 04:18:40 35° 170° (S) 644 1.6 -14.6°
Drops below altitude 10° 04:21:37 10° 102° (ESE) 1,415 4.5 -14.1°
Sets 04:23:47 0° 93° (E) 2,272 6.0 -13.7°
